Location: New Canada
(47.1017°N, 68.5042°W)
Time: 06:21:18
(UTC+00:00)

AO-85 - Pass Details

Date: 10 April 2023
Orbit: 516 x 753 km, 64.8° (Epoch: 04 January)

Event Time Altitude Azimuth Distance (km) Brightness Sun altitude
Rises 08:09:14 0° 163° (SSE) 2,827 ? -17.5°
Reaches altitude 10° 08:13:01 10° 129° (SE) 1,872 ? -17.0°
Maximum altitude 08:14:21 11° 110° (ESE) 1,768 ? -16.8°
Drops below altitude 10° 08:15:40 10° 92° (E) 1,839 ? -16.6°
Sets 08:19:16 0° 58° (ENE) 2,695 ? -16.1°
